Block Island, RI

6:35 PM EDT on May 24, 2018 (GMT -0400)
Block Island State

Weather History for KBID - January, 2013

Change the Weather History Date:

Thursday, January 3, 2013

  Actual Average Record
Temperature  
Mean Temperature 24 °F -  
Max Temperature 33 °F 38 °F 55 °F (2000)
Min Temperature 15 °F 27 °F 8 °F (2014)
Degree Days  
Heating Degree Days 42    
Moisture  
Dew Point 7 °F    
Average Humidity 47    
Maximum Humidity 60    
Minimum Humidity 34    
Precipitation  
Precipitation 0.00 in - - ()
Sea Level Pressure  
Sea Level Pressure 30.08 in    
Wind  
Wind Speed 12 mph (WNW)    
Max Wind Speed 17 mph    
Max Gust Speed 28 mph    
Visibility 10 miles    
Events      
Averages and records for this station are not official NWS values.
T = Trace of Precipitation, MM = Missing Value Source: NWS Daily Summary

Daily Weather History Graph

Daily Weather History Graph

Search for Another Location

Airport or City:

Astronomy

Jan. 03, 2013 Rise Set
Actual Time 7:11 AM EST 4:30 PM EST
Civil Twilight 6:40 AM EST 5:01 PM EST
Nautical Twilight 6:06 AM EST 5:35 PM EST
Astronomical Twilight 5:32 AM EST 6:09 PM EST
Moon 11:06 PM EST (1/3) 10:18 AM EST (1/3)
Length of Visible Light 10h 20m
Length of Day
9h 18m
Waning Gibbous, 65% of the Moon is Illuminated
Jan 3
Waning Gibbous
Jan 4
Last Quarter
Jan 11
New
Jan 18
First Quarter
Jan 26
Full

Hourly Weather History & Observations

Time (EST) Temp. Windchill Dew Point Humidity Pressure Visibility Wind Dir Wind Speed Gust Speed Precip Events Conditions
12:15 AM 26.6 °F 15.2 °F 6.8 °F 43% 30.08 in 10.0 mi NW 13.8 mph 23.0 mph N/A   Clear
12:35 AM 26.6 °F 14.3 °F 6.8 °F 43% 30.09 in 10.0 mi WNW 16.1 mph 27.6 mph N/A   Clear
1:15 AM 26.6 °F 14.7 °F 6.8 °F 43% 30.09 in 10.0 mi NW 15.0 mph 24.2 mph N/A   Clear
1:35 AM 26.6 °F 14.7 °F 6.8 °F 43% 30.09 in 10.0 mi NW 15.0 mph 25.3 mph N/A   Clear
1:55 AM 24.8 °F 12.4 °F 5.0 °F 43% 30.10 in 10.0 mi NW 15.0 mph 26.5 mph N/A   Clear
2:15 AM 24.8 °F 13.4 °F 3.2 °F 40% 30.10 in 10.0 mi NW 12.7 mph 21.9 mph N/A   Clear
2:35 AM 24.8 °F 12.9 °F 1.4 °F 36% 30.11 in 10.0 mi NW 13.8 mph 25.3 mph N/A   Clear
3:15 AM 21.2 °F 6.8 °F 1.4 °F 42% 30.10 in 10.0 mi NW 17.3 mph 24.2 mph N/A   Clear
3:35 AM 21.2 °F 6.8 °F -0.4 °F 39% 30.10 in 10.0 mi NNW 17.3 mph 24.2 mph N/A   Clear
3:55 AM 19.4 °F 5.0 °F 1.4 °F 46% 30.10 in 10.0 mi NNW 16.1 mph 26.5 mph N/A   Clear
4:15 AM 19.4 °F 7.9 °F 1.4 °F 46% 30.10 in 10.0 mi NNW 10.4 mph - N/A   Clear
4:35 AM 19.4 °F 7.2 °F 1.4 °F 46% 30.11 in 10.0 mi NNW 11.5 mph 17.3 mph N/A   Clear
4:55 AM 17.6 °F 5.7 °F -0.4 °F 45% 30.11 in 10.0 mi NW 10.4 mph 17.3 mph N/A   Clear
5:15 AM 17.6 °F 5.7 °F -0.4 °F 45% 30.11 in 10.0 mi NNW 10.4 mph 20.7 mph N/A   Clear
6:15 AM 17.6 °F 6.4 °F 1.4 °F 49% 30.11 in 10.0 mi NNW 9.2 mph 16.1 mph N/A   Clear
7:15 AM 17.6 °F 5.7 °F 1.4 °F 49% 30.13 in 10.0 mi NW 10.4 mph - N/A   Clear
8:15 AM 15.8 °F 3.4 °F -0.4 °F 49% 30.14 in 10.0 mi NNW 10.4 mph 17.3 mph N/A   Clear
8:35 AM 17.6 °F 5.0 °F 1.4 °F 49% 30.14 in 10.0 mi NNW 11.5 mph 18.4 mph N/A   Clear
8:55 AM 17.6 °F 6.4 °F 1.4 °F 49% 30.14 in 10.0 mi NW 9.2 mph - N/A   Clear
9:15 AM 17.6 °F 7.3 °F 1.4 °F 49% 30.13 in 10.0 mi NW 8.1 mph - N/A   Clear
10:35 AM 21.2 °F 10.1 °F 1.4 °F 42% 30.13 in 10.0 mi WNW 10.4 mph 18.4 mph N/A   Clear
10:55 AM 21.2 °F 10.9 °F 1.4 °F 42% 30.12 in 10.0 mi NW 9.2 mph - N/A   Clear
11:15 AM 21.2 °F 7.8 °F 3.2 °F 46% 30.11 in 10.0 mi NW 15.0 mph 18.4 mph N/A   Clear
11:35 AM 21.2 °F 9.5 °F 3.2 °F 46% 30.10 in 10.0 mi WNW 11.5 mph 19.6 mph N/A   Clear
12:15 PM 24.8 °F 13.4 °F 3.2 °F 40% 30.08 in 10.0 mi NW 12.7 mph 18.4 mph N/A   Clear
12:35 PM 24.8 °F 15.3 °F 1.4 °F 36% 30.07 in 10.0 mi WNW 9.2 mph 16.1 mph N/A   Clear
12:55 PM 24.8 °F 14.0 °F 3.2 °F 40% 30.06 in 10.0 mi WNW 11.5 mph - N/A   Clear
1:15 PM 26.6 °F 15.2 °F 1.4 °F 34% 30.05 in 10.0 mi NW 13.8 mph 18.4 mph N/A   Clear
1:35 PM 26.6 °F 16.8 °F 1.4 °F 34% 30.05 in 10.0 mi WNW 10.4 mph 19.6 mph N/A   Clear
1:55 PM 26.6 °F 16.2 °F 5.0 °F 40% 30.05 in 10.0 mi NW 11.5 mph 18.4 mph N/A   Clear
2:15 PM 26.6 °F 15.7 °F 6.8 °F 43% 30.05 in 10.0 mi NW 12.7 mph 18.4 mph N/A   Clear
2:35 PM 26.6 °F 17.5 °F 6.8 °F 43% 30.06 in 10.0 mi NW 9.2 mph 20.7 mph N/A   Clear
2:55 PM 28.4 °F 18.0 °F 8.6 °F 43% 30.05 in 10.0 mi NW 12.7 mph - N/A   Clear
3:15 PM 28.4 °F 19.1 °F 8.6 °F 43% 30.05 in 10.0 mi WNW 10.4 mph - N/A   Clear
3:35 PM 28.4 °F 21.2 °F 8.6 °F 43% 30.05 in 10.0 mi NW 6.9 mph 16.1 mph N/A   Clear
3:55 PM 28.4 °F 22.2 °F 10.4 °F 47% 30.05 in 10.0 mi West 5.8 mph - N/A   Clear
4:15 PM 26.6 °F 19.1 °F 10.4 °F 51% 30.05 in 10.0 mi WNW 6.9 mph - N/A   Clear
4:35 PM 26.6 °F 19.1 °F 10.4 °F 51% 30.04 in 10.0 mi WNW 6.9 mph - N/A   Clear
5:15 PM 26.6 °F 18.2 °F 10.4 °F 51% 30.04 in 10.0 mi WNW 8.1 mph - N/A   Clear
5:35 PM 28.4 °F 22.2 °F 10.4 °F 47% 30.05 in 10.0 mi WNW 5.8 mph - N/A   Clear
5:55 PM 28.4 °F 19.7 °F 10.4 °F 47% 30.05 in 10.0 mi WNW 9.2 mph - N/A   Clear
6:15 PM 28.4 °F 21.2 °F 12.2 °F 51% 30.06 in 10.0 mi West 6.9 mph - N/A   Partly Cloudy
6:35 PM 28.4 °F 20.4 °F 14.0 °F 55% 30.06 in 10.0 mi WNW 8.1 mph - N/A   Clear
6:55 PM 28.4 °F 21.2 °F 14.0 °F 55% 30.06 in 10.0 mi West 6.9 mph 16.1 mph N/A   Clear
7:15 PM 28.4 °F 19.7 °F 14.0 °F 55% 30.06 in 10.0 mi WNW 9.2 mph - N/A   Mostly Cloudy
7:35 PM 28.4 °F 19.1 °F 12.2 °F 51% 30.06 in 10.0 mi West 10.4 mph - N/A   Overcast
7:55 PM 30.2 °F 22.6 °F 14.0 °F 51% 30.06 in 10.0 mi West 8.1 mph - N/A   Overcast
8:15 PM 30.2 °F 22.6 °F 14.0 °F 51% 30.06 in 10.0 mi West 8.1 mph - N/A   Mostly Cloudy
8:35 PM 30.2 °F 20.8 °F 14.0 °F 51% 30.06 in 10.0 mi West 11.5 mph 16.1 mph N/A   Partly Cloudy
8:55 PM 30.2 °F 21.3 °F 14.0 °F 51% 30.05 in 10.0 mi West 10.4 mph - N/A   Partly Cloudy
9:15 PM 30.2 °F 20.8 °F 15.8 °F 55% 30.04 in 10.0 mi West 11.5 mph - N/A   Mostly Cloudy
9:35 PM 30.2 °F 20.8 °F 17.6 °F 60% 30.05 in 10.0 mi WSW 11.5 mph 16.1 mph N/A   Overcast
10:15 PM 30.2 °F 21.3 °F 17.6 °F 60% 30.04 in 10.0 mi West 10.4 mph 17.3 mph N/A   Overcast
10:55 PM 32.0 °F 21.2 °F 19.4 °F 60% 30.04 in 10.0 mi West 16.1 mph 23.0 mph N/A   Mostly Cloudy
11:15 PM 32.0 °F 22.1 °F 19.4 °F 60% 30.03 in 10.0 mi WSW 13.8 mph - N/A   Mostly Cloudy
11:55 PM 33.8 °F 24.8 °F 21.2 °F 60% 30.01 in 10.0 mi West 12.7 mph 18.4 mph N/A   Overcast